Regional Weather Roundup
Issued by NWS

Home | Current Version | Previous Version | Text Only | Print | Product List | Glossary On
Versions: 1 2 3 4 5 6 7 8 9 10 11 12 13 14 15 16 17 18 19 20 21 22 23 24 25 26 27 28 29 30 31 32 33 34 35 36 37 38 39 40 41 42 43 44 45 46 47 48 49 50
000
ASUS44 KOUN 102010
RWROK

WEATHER ROUNDUP FOR OKLAHOMA
NATIONAL WEATHER SERVICE NORMAN OK
200 PM CST WED FEB 10 2016

NOTE: "FAIR" INDICATES FEW OR NO CLOUDS BELOW 12,000 FEET WITH NO
      SIGNIFICANT WEATHER AND/OR OBSTRUCTIONS TO VISIBILITY.

OKZ001>007-009>012-014-015-017-102100-
NORTHWEST OKLAHOMA AND THE PANHANDLE

CITY           SKY/WX    TMP DP  RH WIND       PRES   REMARKS
GAGE           SUNNY     80  18  10 W21       30.00F
GUYMON         SUNNY     81  -1   4 W14G22    30.03F
ENID/WOODRING  SUNNY     73  34  23 SW18      29.99F
$$

OKZ016-021>023-033>039-044-045-102100-
SOUTHWEST OKLAHOMA

CITY           SKY/WX    TMP DP  RH WIND       PRES   REMARKS
LAWTON/REGL    SUNNY     69  32  25 SW14G24   30.09F
LAWTON/FT SILL SUNNY     67  35  30 SW15      30.07F
FREDERICK      SUNNY     73  33  23 SW18      30.07F
CLINTON        SUNNY     77  22  13 SW24G35   30.05F
HOBART         SUNNY     72  33  24 SW22      30.07F
ALTUS AFB      SUNNY     75  26  16 SW17G26   30.07F
$$

OKZ018>020-024>031-102100-
CENTRAL OKLAHOMA

CITY           SKY/WX    TMP DP  RH WIND       PRES   REMARKS
OKLAHOMA CITY  SUNNY     69  30  23 SW20G28   30.03F
OKC/WILEY POST SUNNY     67  32  27 SW20      30.02F
OKC/TINKER AFB SUNNY     67  29  23 SW21      30.02F
STILLWATER     SUNNY     68  30  24 SW16G26   29.99F
GUTHRIE        SUNNY     68  29  23 SW16      30.00F
$$

OKZ008-013-054>072-102100-
NORTHEAST OKLAHOMA

CITY           SKY/WX    TMP DP  RH WIND       PRES   REMARKS
TULSA          MOSUNNY   59  27  29 S12G21    30.01F
TULSA/JONES    SUNNY     61  27  27 S14       30.02F
PONCA CITY     SUNNY     65  32  29 SW14G25   29.98F
BARTLESVILLE   SUNNY     58  24  27 S10G20    30.00F
MUSKOGEE       SUNNY     56  23  27 SW12      30.10F
$$

OKZ032-040>043-046>053-073>077-102100-
SOUTH CENTRAL/SOUTHEAST OKLAHOMA

CITY           SKY/WX    TMP DP  RH WIND       PRES   REMARKS
ARDMORE/DWNTWN SUNNY     66  28  24 W10G16    30.12F
MCALESTER      MOSUNNY   60  27  28 S21       30.11F
$$




USA.gov is the U.S. government's official web portal to all federal, state and local government web resources and services.